www.pogodaiklimat.ru

Погода и климат >> Архив погоды >> Россия >> Магаданская область >> Усть-Омчуг


ПОГОДА в Усть-Омчуге

  • Прогноз погоды в Усть-Омчуге
  • Монитор погоды в Усть-Омчуге

АРХИВ ПОГОДЫ в Усть-Омчуге

Время (UTC), дата Ветер
(напр.,м/с)
 
Видим.   Явления Облачность Т
(С)
Тd
(С)
f
(%)
Тe
(С)
Тes
(С)
Комфортность P
(гПа)
Po
(гПа)
Тmin
(С)
Tmax
(С)
R
(мм)
R24
(мм)
S
(см)
09 12.05 ЮЗ 5
{12}
50 км 5/1 1000 м
[Sc Ac trans Ci fib]
+15.2 -1.5 32 +14 +14 1003.5 937.9 +17.7
12 12.05 ЮЗ 1 50 км 9/3 1000 м
[Sc Ac trans Ci fib]
+10.2 -0.5 47 +10 +10 1005.5 938.7
15 12.05 ЮЗ 2 50 км 9/4 1000 м
[Sc Ac trans Ci fib]
+7.8 0.0 58 +6 +6 1007.1 939.7
18 12.05 ЮВ 1 50 км 9/4 1000 м
[Sc Ac trans Ci fib]
+3.5 -0.0 78 +2 +2 1008.9 940.3
21 12.05 штиль 0 50 км 9/3 1000 м
[Cb calv Ac trans Cs]
+7.6 +0.3 60 +7 +9 1008.0 940.4 +3.5
00 13.05 ЮЗ 1 50 км 10/3 1000 м
[Sc Ac trans Cs]
+10.4 -1.5 43 +11 +15 1006.2 939.4
03 13.05 З 2 20 км слаб. ливневой дождь 9/9 1000 м
[Cb cap Ac und]
+5.7 +3.3 85 +3 +4 1007.5 939.6
06 13.05 СВ 3 20 км слаб. ливневой дождь 9/9 300 м
[Cb cap]
+4.1 +3.3 95 0 +1 1006.8 938.6
09 13.05 С 3 50 км {ливн. осадки} 9/9 300 м
[Cb calv]
+3.0 +1.6 91 -1 -1 1007.7 939.2 +10.4 5
12 13.05 СВ 3 50 км в посл. час ливневой снег 10/6 600 м
[Cb calv Ac trans Cs]
+2.1 -1.1 79 -2 -2 1009.2 940.3
15 13.05 С 3 20 км слаб. ливневой снег 9/4 1000 м
[Cb cap Ac trans Cs]
+1.4 -3.6 69 -3 -3 1011.0 941.7
18 13.05 С 4 50 км {ливн. осадки} 9/5 1000 м
[Cb calv Ac trans Ci fib]
-0.1 -6.3 63 -5 -5 1013.5 943.7
21 13.05 С 4 50 км 8/4 1000 м
[Cb calv Ac trans]
+0.2 -7.3 57 -5 -4 1015.2 945.4 -0.4 0.1
00 14.05 С 5-10
{10}
50 км 5/5 1000 м
[Cu Sc]
+2.7 -8.9 42 -2 +1 1015.6 946.3
03 14.05 С 4
{10}
50 км 3/3 1000 м
[Cu hum]
+5.3 -9.7 33 +2 +8 1015.0 946.3
06 14.05 СВ 4
{11}
50 км 8/8 1000 м
[Cu med, cong]
+5.2 -9.1 35 +2 +3 1016.0 947.3
09 14.05 С 4 50 км 3/3 1000 м
[Sc diur, vesp]
+5.1 -9.6 34 +2 +2 1016.9 948.1 +6.5
12 14.05 штиль 0 50 км 3/1 1000 м
[Sc Ci fib]
-2.4 -7.5 68 -3 -3 1020.0 949.2
15 14.05 штиль 0 50 км 1/1 1000 м
[Sc]
-5.7 -7.7 86 -7 -7 1022.3 950.5
18 14.05 Ю 1 50 км ясно -7.3 -8.2 93 -10 -10 1024.0 951.6
21 14.05 штиль 0 50 км 3/0
[Ci fib]
+0.6 -6.1 61 0 +5 1021.8 951.6 -8.3
00 15.05 СЗ 1 50 км ясно +7.4 -7.7 33 +7 +20 опасность
простуды
1019.2 950.8
03 15.05 ЮВ 2 50 км 8/5 1000 м
[Cu med, cong Ac trans]
+10.6 -6.9 29 +10 +14 1016.4 949.0
06 15.05 СВ 2 50 км 8/5 1000 м
[Cu med, cong Ac trans Ci fib]
+12.9 -9.0 21 +13 +15 1014.1 947.3
09 15.05 З 3 50 км 6/3 1000 м
[Sc diur, vesp Ac trans Ci fib]
+12.2 -6.4 27 +11 +12 1013.8 946.9 +13.3
12 15.05 Ю 2 50 км 6/3 1000 м
[Sc Ac trans Ci fib]
+6.8 -4.8 43 +5 +5 1016.9 948.5
15 15.05 Ю 3 50 км 9/3 1000 м
[Sc Ci fib]
+4.0 -3.4 58 +1 +1 1018.5 949.4
18 15.05 ЮЗ 2 50 км 4/0
[Ac trans Ci fib]
+0.2 -3.6 76 -3 -3 1020.2 950.0
21 15.05 Ю 2 50 км 8/0
[Ci fib]
+6.5 -1.5 57 +5 +8 1018.5 950.0 -0.1
00 16.05 ЮЗ 4 50 км 9/4 1000 м
[Cb calv Ac trans Ci fib]
+7.1 -0.6 58 +4 +7 1018.0 949.7
03 16.05 ЮЗ 4
{10}
50 км 9/8 1000 м
[Cb calv Ac und]
+5.8 -0.6 63 +2 +3 1019.0 950.3
06 16.05 Ю 3 50 км 9/8 1000 м
[Cb calv Ac und]
+6.7 -0.5 60 +4 +5 1018.0 949.6
09 16.05 ЮЗ 3 50 км 9/4 1000 м
[Cb calv Ac trans Ci fib]
+7.8 -0.6 55 +5 +6 1017.0 948.9 +8.4
12 16.05 Ю 2 50 км 6/1 1000 м
[Sc Ac trans Ci fib]
+4.6 -0.6 69 +2 +2 1018.3 949.3
15 16.05 З 2 50 км 5/0
[Ac trans Ci fib]
+1.0 -2.2 79 -2 -2 1019.5 949.6
18 16.05 ЮЗ 2 50 км 4/0
[Ac trans Ci fib]
-0.4 -3.0 83 -4 -4 1020.3 950.0
21 16.05 ЮЗ 3 50 км 6/0
[Ci fib]
+6.1 -3.3 51 +3 +6 1018.3 949.7 -0.7
00 17.05 ЮЗ 4 50 км 3/0
[Ci fib]
+10.3 -3.2 39 +8 +15 1016.7 949.2
03 17.05 ЮЗ 4
{10}
50 км 5/0
[Ci fib]
+14.4 -1.8 33 +13 +21 1014.2 947.7
06 17.05 ЮЗ 6-11
{13}
50 км 9/0
[Ci fib]
+13.8 -1.8 34 +12 +14 1013.8 947.2
09 17.05 ЮЗ 3
{12}
50 км 9/3 1000 м
[Sc Ac trans Ci fib]
+11.7 -4.0 33 +11 +11 1014.8 947.7 +15.5
12 17.05 ЮЗ 3 50 км 9/8 1000 м
[Cb calv Ac und]
+8.5 -6.3 34 +7 +7 1016.7 948.7
15 17.05 ЮЗ 2 20 км слаб. ливневой дождь 9/8 1000 м
[Cb cap Ac und]
+6.1 -6.0 42 +4 +4 1017.7 949.1
18 17.05 ЮЗ 2 20 км слаб. ливневой дождь 9/8 300 м
[Cb cap Ac und]
+3.0 -0.4 78 0 0 1018.3 948.9
21 17.05 ЮЗ 3 50 км {ливн. осадки} 9/9 600 м
[Cb calv]
+4.9 +1.0 76 +2 +2 1016.8 948.0 +2.9 0.4
00 18.05 ЮЗ 2 20 км слаб. ливневой дождь 9/9 600 м
[Cb cap]
+4.0 +3.4 96 +1 +2 1016.5 947.6
03 18.05 Ю 2 50 км {ливн. осадки} 9/5 600 м
[Cb calv Ac trans Ci fib]
+10.1 +3.9 65 +9 +13 1013.5 946.2
06 18.05 ЮЗ 2 50 км {ливн. осадки} 8/3 1000 м
[Cu hum Ac trans Ci fib]
+14.9 -1.2 33 +15 +18 1009.3 943.3
09 18.05 ЮЗ 2 50 км 9/3 1000 м
[Sc diur, vesp Ac trans Ci fib]
+13.1 -4.5 29 +13 +13 1008.5 942.1 +15.4 1
12 18.05 ЮЗ 1 50 км 9/6 1000 м
[Cb calv Ac und]
+6.7 -10.2 29 +7 +7 1009.9 941.9
15 18.05 В 1 50 км 9/3 1000 м
[Cb calv Ac und]
+4.5 -5.2 49 +4 +4 1008.9 940.5
18 18.05 С 2 50 км в посл. час ливневой дождь 9/4 1000 м
[Cb calv Ac und]
+2.7 +1.1 89 -1 -1 1007.6 938.9
21 18.05 СВ 6-10
{11}
50 км 9/4 1000 м
[Sc Ac trans Ci fib]
+5.0 +0.8 74 0 +1 1003.0 935.2 +2.4 0.8
00 19.05 СВ 7-11
{13}
50 км 10/5 1000 м
[Cb calv Ac trans Cs]
+6.3 -0.1 64 +2 +2 999.4 932.1
03 19.05 СВ 7-11
{13}
20 км слаб. ливневой дождь 10/8 600 м
[Cb cap Ac und]
+3.5 +1.1 84 -3 -2 996.6 928.9
06 19.05 С 4
{12}
4000 м ливневой снег 9/9 300 м
[Cb cap]
+0.1 +0.1 100 -6 -5 995.4 926.9

 

Местоположение метеостанции Усть-Омчуг (Магаданская область, Россия): широта 61.12 долгота 149.60 высота над уровнем моря 575 м.

В архиве по умолчанию представлена погода в Усть-Омчуге за последнюю неделю. Архивные данные за месяц целиком и за предыдущие месяцы, начиная с января 2011 года, Вы можете получить, выбрав интересующий диапазон дат из раскрывающегося списка и нажав кнопку "Ввод!".


*Определитесь, кто Вы:
робот инопланетянин человек

Внимание! Время в таблицах - всемирное. Для получения местного времени необходимо прибавить поправку, которая равна 11 ч.

Смотрите также архив погоды в соседних городах и на ближайших метеорологических станциях:

Погода в Мадауне (Магаданская область, Россия) (83 км)
Погода на Озере Джека Лондона (Магаданская область, Россия) (107 км)
Погода в Усть-Бохапче (Магаданская область, Россия) (121 км)
Погода в Колымской (Магаданская область, Россия) (134 км)
Погода в Палатке (Магаданская область, Россия) (134 км)
Погода в Талой (Магаданская область, Россия) (145 км)
Погода в Ягодной (Магаданская область, Россия) (155 км)
Погода в Талоне (Магаданская область, Россия) (161 км)
Погода в Армани (Магаданская область, Россия) (165 км)
Погода в Магадане (Магаданская область, Россия) (185 км)

Пояснения к столбцам:

Ветер - указаны скорость ветра в м/с - средняя за 10 мин, порывы в срок и между сроками (в фигурных скобках) и направление, откуда дует ветер: С - северный, СВ - северо-восточный, В - восточный, ЮВ - юго-восточный, Ю - южный, ЮЗ - юго-западный, З - западный, СЗ - северо-западный.
Видимость - горизонтальная дальность видимости в метрах или километрах. При видимости от 1 до 10 км при отсутствии осадков обычно наблюдается дымка, при ухудшении видимости до 1 км и менее - туман. В сухую погоду видимость может ухудшаться дымом, пылью или мглою.
Явления - указаны атмосферные явления, наблюдавшиеся в срок или в последний час перед сроком; фигурными скобками обозначены явления, наблюдавшиеся между сроками (за 1-3 часа до срока); квадратными скобками обозначены град или гололедные отложения с указанием их диаметра в мм.
Облачность - указаны через наклонную черту общая и нижняя облачность в баллах и высота нижней границы облаков в метрах; квадратными скобками обозначены формы облаков: Ci - перистые, Cs - перисто-слоистые, Cc - перисто-кучевые, Ac - высококучевые, As - высокослоистые, Sc - слоисто-кучевые, Ns - слоисто-дождевые, Cu - кучевые, Cb - кучево-дождевые. Подробнее классификацию облаков см. в Атласе облаков (PDF).
T - Температура воздуха - температура, измеренная на высоте 2 м над землей.
Td - Температура точки росы - температура, при понижении до которой содержащийся в воздухе водяной пар достигнет насыщения.
f - Относительная влажность воздуха - влажноcть воздуха, измеренная на высоте 2 м над землей.
Te - Эффективная температура - температура, которую ощущает одетый по сезону человек в тени. Характеристика душности погоды. При расчете учитывается влияние влажности воздуха и скорости ветра на теплоощущения человека.
Tes - Эффективная температура на солнце - температура, которую ощущает человек, с поправкой на солнечный нагрев. Характеристика знойности погоды. Зависит от высоты солнца над горизонтом, облачности и скорости ветра. Ночью, в пасмурную погоду, а также при ветре 12 м/с и более поправка равна нулю.
P - Атмосферное давление - приведенное к уровню моря атмосферное давление.
Po - Атмосферное давление - измеренное на уровне метеостанции атмосферное давление.
Tmin - Минимальная температура - минимум температуры воздуха на высоте 2 м над землей.
Tmax - Максимальная температура - максимум температуры воздуха на высоте 2 м над землей.
R - Количество осадков - Количество выпавших осадков за период времени, мм. При наведении курсора мыши на число - период времени, за который выпало указанное количество осадков.
R24 - Количество осадков - Количество выпавших осадков за 24 часа, мм.
S - Снежный покров - Высота снежного покрова, см. При наведении курсора мыши на число - состояние снежного покрова и степень покрытия местности в баллах.